Location: Austin
(30.3000°N, 97.7500°W)
Time: 01:23:50
(UTC-05:00)

TRAILBLAZER - Pass Details

Date: 15 May 2024
Orbit: 622 x 637 km, 64.6° (Epoch: 29 May)

Event Time Altitude Azimuth Distance (km) Brightness Sun altitude
Rises 21:41:34 0° 200° (SSW) 2,883 7.8 -16.5°
Reaches altitude 10° 21:43:50 10° 197° (SSW) 1,981 7.0 -16.9°
Maximum altitude 21:48:16 67° 115° (ESE) 677 4.4 -17.7°
Drops below altitude 10° 21:52:45 10° 34° (NNE) 1,997 7.2 -18.5°
Sets 21:55:03 0° 31° (NNE) 2,908 8.1 -18.9°
